Fryeburg, ME

1:08 PM EST on February 13, 2016 (GMT -0500)
Eastern Slopes Regional

Weather History for KIZG - December, 2013

Change the Weather History Date:

Sunday, December 1, 2013

  Actual Average Record
Temperature  
Mean Temperature 30 °F -  
Max Temperature 36 °F 38 °F 62 °F (2001)
Min Temperature 24 °F 20 °F 5 °F (2007)
Degree Days  
Heating Degree Days 35    
Moisture  
Dew Point 26 °F    
Average Humidity 78    
Maximum Humidity 93    
Minimum Humidity 61    
Precipitation  
Precipitation 0.05 in - - ()
Sea Level Pressure  
Sea Level Pressure 30.19 in    
Wind  
Wind Speed 2 mph (North)    
Max Wind Speed 6 mph    
Max Gust Speed -    
Visibility 8 miles    
Events Snow    
Averages and records for this station are not official NWS values.
T = Trace of Precipitation, MM = Missing Value Source: NWS Daily Summary

Daily Weather History Graph

Daily Weather History Graph

Search for Another Location

Airport or City:

Trip Planner

Search our weather history database for the weather conditions in past years. The results will help you decide how hot, cold, wet, or windy it might be!

Date:

Astronomy

Dec. 01, 2013 Rise Set
Actual Time 6:58 AM EST 4:06 PM EST
Civil Twilight 6:26 AM EST 4:39 PM EST
Nautical Twilight 5:50 AM EST 5:15 PM EST
Astronomical Twilight 5:15 AM EST 5:50 PM EST
Moon 5:10 AM EST (12/1) 3:16 PM EST (12/1)
Length of Visible Light 10h 13m
Length of Day
9h 08m
Waning Crescent, 2% of the Moon is Illuminated
Dec 1
Waning Crescent
Dec 2
New
Dec 9
First Quarter
Dec 17
Full
Dec 25
Last Quarter

Hourly Weather History & Observations

Time (EST) Temp. Windchill Dew Point Humidity Pressure Visibility Wind Dir Wind Speed Gust Speed Precip Events Conditions
12:54 AM 24.1 °F 19.7 °F 17.1 °F 75% 30.40 in 10.0 mi SW 3.5 mph - N/A   Mostly Cloudy
1:54 AM 27.0 °F 23.0 °F 17.1 °F 66% 30.39 in 10.0 mi West 3.5 mph - N/A   Overcast
2:54 AM 28.0 °F 24.2 °F 16.0 °F 61% 30.36 in 10.0 mi WSW 3.5 mph - N/A   Overcast
3:32 AM 28.0 °F - 17.1 °F 63% 30.32 in 10.0 mi Calm Calm - N/A   Overcast
3:54 AM 28.9 °F - 18.0 °F 64% 30.34 in 10.0 mi Calm Calm - N/A   Overcast
4:54 AM 28.0 °F - 19.0 °F 69% 30.31 in 10.0 mi Calm Calm - N/A   Overcast
5:54 AM 28.0 °F - 19.9 °F 72% 30.30 in 10.0 mi Calm Calm - N/A   Overcast
6:09 AM 28.0 °F - 19.9 °F 72% 30.28 in 10.0 mi Calm Calm - N/A   Overcast
6:52 AM 28.4 °F - 21.2 °F 74% 30.27 in 10.0 mi Calm Calm - N/A   Overcast
6:54 AM 28.0 °F - 21.0 °F 75% 30.29 in 10.0 mi Calm Calm - N/A   Overcast
7:54 AM 28.0 °F - 21.0 °F 75% 30.29 in 10.0 mi Calm Calm - N/A   Overcast
8:29 AM 28.9 °F 23.9 °F 21.9 °F 75% 30.26 in 10.0 mi SE 4.6 mph - N/A   Overcast
8:54 AM 28.9 °F - 23.0 °F 78% 30.27 in 10.0 mi Calm Calm - N/A   Overcast
9:54 AM 32.0 °F - 25.0 °F 75% 30.26 in 10.0 mi Calm Calm - N/A   Scattered Clouds
10:54 AM 34.0 °F 31.0 °F 26.1 °F 73% 30.24 in 10.0 mi ESE 3.5 mph - N/A   Mostly Cloudy
11:54 AM 36.0 °F 33.3 °F 27.0 °F 70% 30.21 in 10.0 mi ESE 3.5 mph - N/A   Scattered Clouds
12:31 PM 36.0 °F - 27.0 °F 70% 30.18 in 10.0 mi Calm Calm - N/A   Mostly Cloudy
12:54 PM 36.0 °F 32.1 °F 27.0 °F 70% 30.19 in 10.0 mi ESE 4.6 mph - N/A   Overcast
1:22 PM 36.0 °F 32.1 °F 27.0 °F 70% 30.16 in 10.0 mi East 4.6 mph - N/A   Mostly Cloudy
1:34 PM 36.0 °F 33.3 °F 27.0 °F 70% 30.15 in 10.0 mi ENE 3.5 mph - N/A   Mostly Cloudy
1:43 PM 36.0 °F 33.3 °F 27.0 °F 70% 30.15 in 10.0 mi East 3.5 mph - N/A   Mostly Cloudy
1:54 PM 36.0 °F 33.3 °F 28.0 °F 73% 30.17 in 10.0 mi ESE 3.5 mph - N/A   Scattered Clouds
2:12 PM 36.0 °F - 28.0 °F 73% 30.14 in 10.0 mi Calm Calm - N/A   Mostly Cloudy
2:54 PM 36.0 °F - 28.0 °F 73% 30.16 in 10.0 mi Calm Calm - N/A   Overcast
3:03 PM 36.0 °F - 28.0 °F 73% 30.14 in 10.0 mi Calm Calm - N/A   Overcast
3:54 PM 35.1 °F - 28.0 °F 76% 30.16 in 10.0 mi Calm Calm - N/A   Overcast
4:54 PM 34.0 °F 31.0 °F 27.0 °F 75% 30.15 in 10.0 mi North 3.5 mph - N/A   Overcast
5:54 PM 34.0 °F - 26.1 °F 73% 30.15 in 10.0 mi Calm Calm - N/A   Overcast
6:54 PM 34.0 °F - 26.1 °F 73% 30.14 in 10.0 mi Calm Calm - N/A   Overcast
7:33 PM 33.1 °F - 27.0 °F 78% 30.11 in 2.5 mi Calm Calm - 0.01 in Snow Light Snow
7:47 PM 32.0 °F - 28.0 °F 85% 30.12 in 3.0 mi Calm Calm - 0.01 in Snow Light Snow
7:54 PM 32.0 °F - 28.0 °F 85% 30.14 in 4.0 mi Calm Calm - 0.01 in Snow Light Snow
8:05 PM 32.0 °F 28.7 °F 28.0 °F 85% 30.12 in 1.8 mi NW 3.5 mph - 0.01 in Snow Light Snow
8:18 PM 32.0 °F - 28.9 °F 88% 30.12 in 2.0 mi Calm Calm - 0.01 in Snow Light Snow
8:25 PM 32.0 °F 27.5 °F 28.9 °F 88% 30.11 in 1.8 mi NNW 4.6 mph - 0.02 in Snow Light Snow
8:35 PM 32.0 °F 27.5 °F 28.9 °F 88% 30.11 in 2.5 mi NNW 4.6 mph - 0.02 in Snow Light Snow
8:47 PM 32.0 °F 27.5 °F 28.9 °F 88% 30.11 in 3.0 mi North 4.6 mph - 0.02 in Snow Light Snow
8:54 PM 32.0 °F 27.5 °F 28.9 °F 88% 30.13 in 3.0 mi North 4.6 mph - 0.02 in Snow Light Snow
9:06 PM 32.0 °F 28.7 °F 30.0 °F 92% 30.11 in 4.0 mi NNW 3.5 mph - 0.00 in Snow Light Snow
9:26 PM 32.0 °F 28.7 °F 30.0 °F 92% 30.10 in 2.5 mi North 3.5 mph - 0.01 in Snow Light Snow
9:52 PM 32.0 °F 27.5 °F 30.2 °F 93% 30.10 in 3.0 mi NNW 4.6 mph - 0.01 in Snow Light Snow
9:54 PM 32.0 °F 27.5 °F 30.0 °F 92% 30.12 in 4.0 mi NNW 4.6 mph - 0.01 in Snow Light Snow
10:04 PM 32.0 °F 27.5 °F 30.0 °F 92% 30.10 in 5.0 mi NNW 4.6 mph - 0.00 in Snow Light Snow
10:27 PM 32.0 °F 26.4 °F 30.0 °F 92% 30.09 in 8.0 mi North 5.8 mph - 0.00 in Snow Light Snow
10:54 PM 32.0 °F 26.4 °F 30.0 °F 92% 30.11 in 5.0 mi NNW 5.8 mph - 0.00 in Snow Light Snow
11:43 PM 32.0 °F 26.4 °F 30.0 °F 92% 30.07 in 2.5 mi North 5.8 mph - 0.00 in Snow Light Snow
11:54 PM 32.0 °F 26.4 °F 30.0 °F 92% 30.09 in 4.0 mi North 5.8 mph - 0.01 in Snow Light Snow